SCP
0 0 0 0 0 0 0 0 0 2 4 6 4 4 7 5 3 3 1 0 0 0 0 0 0 0 0 0 0 0 0 0
0 0 0 0 0 0 0 0 0 1 5 6 4 3 4 4 4 2 0 0 0 0 0 0 0 0 0 0 0 0 0 0
0 0 0 0 0 0 0 0 1 1 3 5 5 3 3 3 2 1 0 0 0 0 0 0 0 0 0 0 0 0 0 0
0 0 0 0 0 0 0 0 1 1 2 4 4 3 3 2 1 0 0 0 0 0 0 0 0 0 0 -0 0 0 0 0
0 0 0 0 0 0 0 0 0 1 1 2 2 3 2 0 0 0 0 0 0 0 0 0 0 0 0 0 0 0 0 0
0 0 0 0 -0 0 0 -0 0 0 1 3 4 3 0 0 0 0 0 0 0 0 0 0 0 0 0 -0 -0 0 0 0
-0 0 0 0 -0 -0 0 0 0 2 3 4 2 0 0 0 0 0 0 0 0 0 0 0 0 0 -0 -0 0 0 0 0
-0 0 0 -0 -0 -0 0 0 0 0 2 0 0 0 0 0 0 0 0 0 0 0 0 0 0 0 -0 0 0 0 0 0
-0 -0 0 -0 0 -0 0 0 0 0 0 0 0 0 0 0 0 0 0 0 0 0 0 0 0 0 0 -0 -0 -0 0 0
0 -0 0 0 0 0 0 0 0 0 0 0 0 0 0 0 0 0 0 0 0 0 0 0 0 0 -0 -0 -0 -0 -0 0
-0 0 0 0 0 0 0 0 0 0 0 0 0 0 0 0 0 0 0 0 0 0 0 0 0 0 -0 -0 -0 -0 -0 0
0 0 -0 0 0 0 0 0 0 0 0 0 0 0 0 0 0 0 0 0 0 0 0 0 0 -0 -0 -0 -0 -0 -0 0
0 0 0 -0 0 0 0 0 0 -0 0 0 0 0 0 0 0 0 0 0 0 0 0 0 -0 0 0 -0 -0 0 0 0
-0 0 -0 0 0 0 0 0 0 0 0 0 0 0 0 0 0 0 0 0 -0 -0 -0 0 0 0 -0 -0 -0 -0 0 0
0 0 0 0 0 0 0 0 0 0 0 0 0 0 0 0 0 0 0 0 -0 -0 -0 -0 -0 -0 -0 -0 -0 -0 0 0
0 0 0 0 0 0 0 0 0 0 0 0 0 0 0 0 0 0 0 0 0 0 0 -0 -0 -0 -0 -0 -0 0 0 0
-0 0 0 0 0 0 0 0 0 0 0 0 0 0 0 0 0 0 0 0 0 0 0 -0 -0 -0 -0 -0 0 0 0 0
0 0 0 0 0 0 0 0 0 0 0 -0 0 0 0 0 0 0 0 0 0 0 -0 -0 -0 -0 0 0 0 0 0 0
0 0 0 0 0 0 0 0 0 0 0 0 0 0 0 0 0 0 0 0 0 -0 0 -0 -0 0 0 0 0 0 -0 0
0 0 0 0 0 0 0 0 0 0 0 0 0 0 0 0 0 0 0 0 -0 -0 -0 -0 -0 0 0 0 0 -0 -0 -0
Wind_Speed_500mb
61 66 63 65 58 41 37 45 53 53 64 75 75 84 99 99 95 94 96 100 101 100 105 95 84 83 73 53 43 41 37 28
62 68 74 73 59 51 44 36 48 48 58 74 74 85 93 97 91 93 94 101 103 95 94 88 86 76 60 55 47 45 36 30
62 69 78 66 59 54 44 49 39 48 59 68 74 79 86 85 85 91 99 98 99 92 97 87 84 67 59 57 52 41 33 31
69 69 73 67 56 58 57 52 45 48 65 67 71 74 79 82 88 98 104 101 94 105 84 90 83 67 58 53 45 41 38 33
74 73 74 74 55 53 60 62 53 54 88 88 66 73 71 84 97 95 111 97 87 92 110 95 79 73 59 47 42 42 40 35
65 70 79 69 59 46 59 57 57 66 95 93 72 77 78 109 106 106 104 100 93 92 69 72 72 66 55 47 44 44 43 42
74 74 60 44 39 43 62 35 59 64 81 88 85 93 96 126 119 122 108 97 83 80 80 76 67 61 52 46 46 49 48 46
50 43 27 26 52 62 49 52 62 72 93 95 94 94 105 132 134 131 123 111 88 87 81 68 67 62 49 49 45 46 47 48
22 19 18 28 31 56 78 70 82 91 101 106 115 113 114 133 137 132 130 111 106 93 89 73 62 58 55 46 42 43 44 48
9 8 4 18 42 64 88 104 98 105 114 122 118 108 114 142 128 122 118 119 111 101 92 83 69 61 56 51 44 41 39 40
8 17 18 41 55 77 106 111 103 97 98 113 129 144 133 122 117 124 121 121 108 101 99 93 78 68 64 57 51 44 41 42
43 49 51 59 51 79 122 135 139 138 129 123 123 121 111 114 122 120 112 114 110 104 98 92 82 74 66 57 52 45 41 42
46 62 82 81 76 94 101 119 130 133 116 107 113 122 126 124 113 106 107 100 95 94 90 86 82 75 63 53 46 43 40 36
48 63 75 81 92 92 90 102 116 118 110 115 124 127 122 115 108 99 87 86 82 77 76 75 71 65 59 50 43 39 34 29
51 62 55 72 84 85 83 85 88 88 113 113 112 113 111 108 103 102 102 84 76 73 73 71 67 65 53 48 46 43 32 27
50 59 51 52 59 65 69 79 95 101 104 107 112 111 111 108 108 107 103 99 93 83 70 67 60 54 49 43 43 40 42 40
44 58 64 66 65 66 67 80 94 96 103 104 106 105 102 104 104 101 96 95 95 90 79 61 50 47 44 42 35 37 41 41
50 59 56 64 75 72 66 80 90 94 103 104 104 102 100 97 97 98 97 94 92 84 74 66 57 51 49 43 40 39 39 35
53 61 66 73 80 78 85 87 88 94 97 97 94 87 85 91 92 90 87 84 79 73 63 50 41 43 46 41 40 36 32 29
66 75 75 73 78 83 81 82 78 77 75 76 76 84 87 87 86 82 79 75 69 64 54 43 36 39 40 39 35 31 29 27
Wind_Direction_500mb
310 311 311 307 295 292 267 248 249 244 228 216 218 220 224 221 222 218 214 214 210 202 201 192 190 187 181 180 187 186 181 185
309 307 307 305 290 281 274 273 256 237 228 212 208 215 219 217 214 211 212 210 209 202 187 183 188 180 172 177 178 176 176 170
298 301 305 292 284 271 270 264 267 232 213 206 202 216 216 207 204 202 195 201 207 196 182 181 177 170 170 173 170 169 167 152
285 287 291 300 283 271 273 269 251 229 208 211 203 206 203 199 198 190 180 180 191 190 184 170 166 164 165 168 165 160 149 140
278 277 285 299 283 278 274 268 245 223 210 212 201 198 189 187 183 174 179 182 161 171 162 162 157 154 162 155 156 147 138 129
279 277 291 296 285 259 257 260 245 220 212 210 196 186 175 176 180 175 164 160 157 141 153 151 151 145 151 151 153 141 130 121
281 287 295 290 301 280 247 228 207 202 199 184 183 174 175 165 172 171 173 159 146 149 154 149 148 143 148 151 149 136 129 124
285 296 295 292 286 277 116 128 167 164 167 166 167 161 175 172 164 159 141 139 152 151 145 145 146 142 144 144 142 134 133 123
298 284 285 269 265 120 115 119 120 131 147 153 149 153 159 161 149 142 142 153 147 145 141 140 138 136 136 138 137 136 130 124
250 239 237 40 133 131 118 114 124 129 139 146 148 148 139 139 143 142 151 143 146 142 136 132 130 132 133 133 134 132 126 119
107 113 108 106 112 133 120 119 130 133 127 132 140 138 138 142 143 144 142 144 141 137 137 134 133 132 130 132 136 131 128 113
87 93 102 118 113 112 119 124 123 121 120 125 127 129 139 144 144 144 141 139 141 141 140 137 136 137 137 140 139 137 122 109
93 95 91 95 122 123 124 128 130 126 130 134 135 142 143 139 136 136 142 139 145 146 144 142 140 140 142 144 142 134 120 109
89 97 104 104 115 121 127 136 137 138 136 130 134 136 137 140 138 134 138 142 141 142 140 138 136 134 140 140 132 116 116 123
89 95 104 107 114 119 128 133 137 141 140 135 134 136 135 135 135 134 131 132 133 134 137 139 137 135 136 132 129 117 112 120
96 102 108 116 123 119 125 131 136 135 133 133 135 136 136 136 135 134 134 134 132 131 131 133 133 133 131 128 117 123 112 93
107 103 104 117 121 123 131 129 128 128 134 135 134 134 134 134 135 135 134 133 130 129 129 129 130 126 122 111 119 102 97 88
111 106 112 113 114 123 130 127 127 126 128 132 134 135 137 137 137 135 135 133 132 133 134 134 137 129 118 112 103 96 89 90
109 110 111 114 114 117 120 120 127 131 129 130 131 131 135 136 135 135 135 134 134 134 130 128 124 119 114 109 102 98 95 91
111 109 107 109 111 114 118 122 122 125 126 128 133 135 137 137 137 137 136 132 128 124 126 127 124 115 118 117 111 103 100 96
Wind_Speed_850mb
61 66 63 65 58 41 37 45 53 53 64 75 75 84 99 99 95 94 96 100 101 100 105 95 84 83 73 53 43 41 37 28
62 68 74 73 59 51 44 36 48 48 58 74 74 85 93 97 91 93 94 101 103 95 94 88 86 76 60 55 47 45 36 30
62 69 78 66 59 54 44 49 39 48 59 68 74 79 86 85 85 91 99 98 99 92 97 87 84 67 59 57 52 41 33 31
69 69 73 67 56 58 57 52 45 48 65 67 71 74 79 82 88 98 104 101 94 105 84 90 83 67 58 53 45 41 38 33
74 73 74 74 55 53 60 62 53 54 88 88 66 73 71 84 97 95 111 97 87 92 110 95 79 73 59 47 42 42 40 35
65 70 79 69 59 46 59 57 57 66 95 93 72 77 78 109 106 106 104 100 93 92 69 72 72 66 55 47 44 44 43 42
74 74 60 44 39 43 62 35 59 64 81 88 85 93 96 126 119 122 108 97 83 80 80 76 67 61 52 46 46 49 48 46
50 43 27 26 52 62 49 52 62 72 93 95 94 94 105 132 134 131 123 111 88 87 81 68 67 62 49 49 45 46 47 48
22 19 18 28 31 56 78 70 82 91 101 106 115 113 114 133 137 132 130 111 106 93 89 73 62 58 55 46 42 43 44 48
9 8 4 18 42 64 88 104 98 105 114 122 118 108 114 142 128 122 118 119 111 101 92 83 69 61 56 51 44 41 39 40
8 17 18 41 55 77 106 111 103 97 98 113 129 144 133 122 117 124 121 121 108 101 99 93 78 68 64 57 51 44 41 42
43 49 51 59 51 79 122 135 139 138 129 123 123 121 111 114 122 120 112 114 110 104 98 92 82 74 66 57 52 45 41 42
46 62 82 81 76 94 101 119 130 133 116 107 113 122 126 124 113 106 107 100 95 94 90 86 82 75 63 53 46 43 40 36
48 63 75 81 92 92 90 102 116 118 110 115 124 127 122 115 108 99 87 86 82 77 76 75 71 65 59 50 43 39 34 29
51 62 55 72 84 85 83 85 88 88 113 113 112 113 111 108 103 102 102 84 76 73 73 71 67 65 53 48 46 43 32 27
50 59 51 52 59 65 69 79 95 101 104 107 112 111 111 108 108 107 103 99 93 83 70 67 60 54 49 43 43 40 42 40
44 58 64 66 65 66 67 80 94 96 103 104 106 105 102 104 104 101 96 95 95 90 79 61 50 47 44 42 35 37 41 41
50 59 56 64 75 72 66 80 90 94 103 104 104 102 100 97 97 98 97 94 92 84 74 66 57 51 49 43 40 39 39 35
53 61 66 73 80 78 85 87 88 94 97 97 94 87 85 91 92 90 87 84 79 73 63 50 41 43 46 41 40 36 32 29
66 75 75 73 78 83 81 82 78 77 75 76 76 84 87 87 86 82 79 75 69 64 54 43 36 39 40 39 35 31 29 27
Wind_Direction_850mb
310 311 311 307 295 292 267 248 249 244 228 216 218 220 224 221 222 218 214 214 210 202 201 192 190 187 181 180 187 186 181 185
309 307 307 305 290 281 274 273 256 237 228 212 208 215 219 217 214 211 212 210 209 202 187 183 188 180 172 177 178 176 176 170
298 301 305 292 284 271 270 264 267 232 213 206 202 216 216 207 204 202 195 201 207 196 182 181 177 170 170 173 170 169 167 152
285 287 291 300 283 271 273 269 251 229 208 211 203 206 203 199 198 190 180 180 191 190 184 170 166 164 165 168 165 160 149 140
278 277 285 299 283 278 274 268 245 223 210 212 201 198 189 187 183 174 179 182 161 171 162 162 157 154 162 155 156 147 138 129
279 277 291 296 285 259 257 260 245 220 212 210 196 186 175 176 180 175 164 160 157 141 153 151 151 145 151 151 153 141 130 121
281 287 295 290 301 280 247 228 207 202 199 184 183 174 175 165 172 171 173 159 146 149 154 149 148 143 148 151 149 136 129 124
285 296 295 292 286 277 116 128 167 164 167 166 167 161 175 172 164 159 141 139 152 151 145 145 146 142 144 144 142 134 133 123
298 284 285 269 265 120 115 119 120 131 147 153 149 153 159 161 149 142 142 153 147 145 141 140 138 136 136 138 137 136 130 124
250 239 237 40 133 131 118 114 124 129 139 146 148 148 139 139 143 142 151 143 146 142 136 132 130 132 133 133 134 132 126 119
107 113 108 106 112 133 120 119 130 133 127 132 140 138 138 142 143 144 142 144 141 137 137 134 133 132 130 132 136 131 128 113
87 93 102 118 113 112 119 124 123 121 120 125 127 129 139 144 144 144 141 139 141 141 140 137 136 137 137 140 139 137 122 109
93 95 91 95 122 123 124 128 130 126 130 134 135 142 143 139 136 136 142 139 145 146 144 142 140 140 142 144 142 134 120 109
89 97 104 104 115 121 127 136 137 138 136 130 134 136 137 140 138 134 138 142 141 142 140 138 136 134 140 140 132 116 116 123
89 95 104 107 114 119 128 133 137 141 140 135 134 136 135 135 135 134 131 132 133 134 137 139 137 135 136 132 129 117 112 120
96 102 108 116 123 119 125 131 136 135 133 133 135 136 136 136 135 134 134 134 132 131 131 133 133 133 131 128 117 123 112 93
107 103 104 117 121 123 131 129 128 128 134 135 134 134 134 134 135 135 134 133 130 129 129 129 130 126 122 111 119 102 97 88
111 106 112 113 114 123 130 127 127 126 128 132 134 135 137 137 137 135 135 133 132 133 134 134 137 129 118 112 103 96 89 90
109 110 111 114 114 117 120 120 127 131 129 130 131 131 135 136 135 135 135 134 134 134 130 128 124 119 114 109 102 98 95 91
111 109 107 109 111 114 118 122 122 125 126 128 133 135 137 137 137 137 136 132 128 124 126 127 124 115 118 117 111 103 100 96